EW9495 Weather Reports


time (UTC)temp
F
wind
direction
speed
knots
gust
knots
rain 1hr
in
rain 24hr
in
rain mn
in
humidity
%
barometer
mb
20260904223039 0 330 9.6 18.2 0.00 0.00 0.00 1001.5
20260904221537 0 319 11.3 18.2 0.00 0.00 0.00 1001.4
20260904220029 0 311 12.2 20.0 0.00 0.00 0.00 1001.0
20260904214525 0 333 10.4 19.1 0.00 0.00 0.00 1000.7
20260904213020 0 323 11.3 20.0 0.00 0.00 0.00 1000.5
20260904211519 0 327 11.3 20.0 0.00 0.00 0.00 1000.4
20260904210019 0 308 11.3 19.1 0.00 0.00 0.00 1000.1
20260904204511 0 15 9.6 18.2 0.00 0.00 0.00 999.9
20260904203006 0 61 11.3 19.1 0.00 0.00 0.00 1000.0
20260904201502 0 346 9.6 16.5 0.00 0.00 0.00 999.8
20260904200111 0 349 9.6 18.2 0.00 0.00 0.00 999.8
20260904194553 0 329 7.8 12.2 0.00 0.00 0.00 999.5
20260904193049 0 22 8.7 16.5 0.00 0.00 0.00 998.7
20260904191544 0 332 8.7 13.0 0.00 0.00 0.00 998.8
20260904190041 0 322 7.0 13.0 0.00 0.00 0.00 998.7
20260904184538 0 319 7.0 11.3 0.00 0.00 0.00 998.4
20260904183041 0 302 3.5 8.7 0.00 0.00 0.00 998.4
20260904181537 0 296 3.5 7.8 0.00 0.00 0.00 998.3
20260904180043 0 335 1.7 4.3 0.00 0.00 0.00 998.4
20260904174536 0 246 0.9 4.3 0.00 0.00 0.00 998.2
20260904173051 0 91 0.0 1.7 0.00 0.00 0.00 997.9
20260904171538 0 338 2.6 6.1 0.00 0.00 0.00 997.7
20260904170039 0 281 1.7 5.2 0.00 0.00 0.00 997.9
20260904164530 0 260 0.9 4.3 0.00 0.00 0.00 997.9
20260904163026 0 240 0.9 7.8 0.00 0.00 0.00 997.6
20260904161521 0 248 3.5 7.8 0.00 0.00 0.00 997.7
20260904160019 0 237 7.0 12.2 0.00 0.00 0.00 997.8
20260904154513 0 165 7.8 11.3 0.00 0.00 0.00 997.5
20260904153012 0 131 7.8 13.9 0.00 0.00 0.00 996.8
20260904151504 0 106 7.8 18.2 0.00 0.00 0.00 996.0
20260904150059 0 113 7.8 16.5 0.00 0.00 0.00 996.1
20260904144555 0 117 5.2 12.2 0.00 0.00 0.00 996.2
20260904143051 0 109 6.1 13.9 0.00 0.00 0.00 996.2
20260904141553 0 107 6.1 10.4 0.00 0.00 0.00 996.5
20260904140042 0 108 6.1 9.6 0.00 0.00 0.00 996.5
20260904134559 0 98 6.1 12.2 0.00 0.00 0.00 996.3
20260904133036 0 82 7.0 10.4 0.00 0.00 0.00 996.4
20260904131528 0 80 7.0 11.3 0.00 0.00 0.00 996.4
20260904130024 0 90 7.0 11.3 0.00 0.00 0.00 996.2
20260904124520 0 71 7.0 10.4 0.00 0.00 0.00 995.8
20260904123016 0 83 7.0 11.3 0.00 0.00 0.00 995.8
20260904121511 0 93 7.0 11.3 0.00 0.00 0.00 995.8
20260904120007 0 108 7.0 13.0 0.00 0.00 0.00 995.9
20260904114503 0 70 8.7 13.9 0.00 0.00 0.00 996.0
20260904113058 0 80 10.4 17.4 0.00 0.00 0.00 995.8
20260904111553 0 62 11.3 16.5 0.00 0.00 0.00 996.0
20260904110050 0 55 11.3 18.2 0.00 0.00 0.00 996.2
20260904104546 0 82 13.0 20.9 0.00 0.00 0.00 996.0
20260904103041 0 98 12.2 19.1 0.00 0.00 0.00 996.2
20260904101537 0 72 11.3 20.9 0.00 0.00 0.00 996.6
20260904100032 0 78 11.3 20.9 0.00 0.00 0.00 996.6
20260904094542 0 89 14.8 20.9 0.00 0.00 0.00 996.7
20260904093024 0 59 12.2 20.0 0.00 0.00 0.00 996.7
20260904091519 0 67 13.9 20.0 0.00 0.00 0.00 996.8
20260904090030 0 77 10.4 18.2 0.00 0.00 0.00 996.9
20260904084512 0 97 12.2 18.2 0.00 0.00 0.00 997.1
20260904083006 0 88 13.9 18.2 0.00 0.00 0.00 997.1
20260904081504 0 72 12.2 19.1 0.00 0.00 0.00 997.2
20260904080057 0 70 7.8 10.4 0.00 0.00 0.00 997.4
20260904074554 0 73 7.8 9.6 0.00 0.00 0.00 997.7
20260904073054 0 74 3.5 6.1 0.00 0.00 0.00 998.0
20260904071600 0 87 2.6 5.2 0.00 0.00 0.00 998.0
20260904070107 0 63 2.6 4.3 0.00 0.00 0.00 998.1
20260904064537 0 63 1.7 4.3 0.00 0.00 0.00 998.0
20260904063034 0 46 3.5 6.1 0.00 0.00 0.00 998.1
20260904061530 0 37 3.5 6.1 0.00 0.00 0.00 998.5
20260904060020 0 34 5.2 6.1 0.00 0.00 0.00 998.7
20260904054518 0 59 1.7 3.5 0.00 0.00 0.00 998.7
20260904053033 0 138 3.5 6.1 0.00 0.00 0.00 998.9
20260904051520 0 94 3.5 6.1 0.00 0.00 0.00 998.9
20260904050002 0 111 2.6 8.7 0.00 0.00 0.00 998.9
20260904044558 0 17 0.0 3.5 0.00 0.00 0.00 998.6
20260904043100 0 349 2.6 6.1 0.00 0.00 0.00 998.4
20260904041549 0 321 2.6 6.1 0.00 0.00 0.00 998.5
20260904040100 0 15 2.6 7.0 0.00 0.00 0.00 998.6
20260904034540 0 19 3.5 6.1 0.00 0.00 0.00 998.6
20260904033040 0 340 2.6 6.1 0.00 0.00 0.00 998.8
20260904031537 0 331 4.3 7.8 0.00 0.00 0.00 998.6
20260904030027 0 330 3.5 7.0 0.00 0.00 0.00 998.7
20260904024523 0 338 3.5 6.1 0.00 0.00 0.00 998.5
20260904023022 0 334 3.5 5.2 0.00 0.00 0.00 998.4
20260904021524 0 326 4.3 7.0 0.00 0.00 0.00 998.2
20260904020019 0 327 4.3 7.0 0.00 0.00 0.00 998.0
20260904014517 0 315 2.6 7.0 0.00 0.00 0.00 998.1
20260904013015 0 304 5.2 9.6 0.00 0.00 0.00 998.1
20260904011511 0 319 6.1 15.6 0.00 0.00 0.00 998.1
20260904010006 0 306 6.1 15.6 0.00 0.01 0.00 998.1
20260904004501 0 309 7.0 12.2 0.00 0.01 0.00 998.0
20260904003057 0 247 6.1 13.9 0.00 0.01 0.00 998.0
20260904001554 0 319 6.1 13.9 0.00 0.01 0.00 997.9
20260904000103 0 298 9.6 17.4 0.00 0.01 0.00 997.9
20260903234545 0 290 7.8 13.9 0.00 0.02 0.00 997.7
20260903233040 0 281 8.7 15.6 0.00 0.02 0.00 997.7
20260903231540 0 310 9.6 19.1 0.00 0.02 0.00 997.6
20260903230044 0 309 7.8 19.1 0.00 0.02 0.00 997.5
20260903224533 0 261 10.4 18.2 0.00 0.02 0.00 997.3